W8UFO-13 Weather Reports


time (UTC)temp
C
wind
direction
speed
KPH
gust
KPH
rain 1hr
cm
rain 24hr
cm
rain mn
cm
humidity
%
barometer
mb
20260503223917 19 248 1.6 3.2 0.00 0.00 0.00 41 1018.3
20260503223416 20 315 1.6 4.8 0.00 0.00 0.00 41 1018.4
20260503222917 20 248 1.6 3.2 0.00 0.00 0.00 42 1018.5
20260503222417 20 248 1.6 1.6 0.00 0.00 0.00 42 1018.5
20260503221917 20 270 3.2 6.4 0.00 0.00 0.00 41 1018.6
20260503221417 20 225 4.8 8.0 0.00 0.00 0.00 41 1018.6
20260503220917 20 0.0 3.2 0.00 0.00 0.00 42 1018.5
20260503220417 20 315 3.2 4.8 0.00 0.00 0.00 40 1018.7
20260503215916 20 225 1.6 4.8 0.00 0.00 0.00 42 1018.7
20260503215417 20 135 1.6 3.2 0.00 0.00 0.00 40 1018.8
20260503214917 20 248 4.8 8.0 0.00 0.00 0.00 40 1018.8
20260503214417 20 248 3.2 9.7 0.00 0.00 0.00 40 1018.8
20260503213917 21 45 1.6 3.2 0.00 0.00 0.00 39 1018.9
20260503213417 21 0.0 1.6 0.00 0.00 0.00 42 1019.0
20260503212917 20 0.0 1.6 0.00 0.00 0.00 41 1019.1
20260503212417 20 180 3.2 9.7 0.00 0.00 0.00 42 1019.1
20260503211917 20 248 1.6 3.2 0.00 0.00 0.00 43 1019.1
20260503211417 20 0.0 1.6 0.00 0.00 0.00 41 1019.2
20260503210917 20 248 1.6 3.2 0.00 0.00 0.00 42 1019.1
20260503210417 20 293 4.8 9.7 0.00 0.00 0.00 39 1019.2
20260503205917 20 158 1.6 3.2 0.00 0.00 0.00 44 1019.1
20260503205416 20 225 1.6 1.6 0.00 0.00 0.00 42 1019.3
20260503204917 20 0.0 1.6 0.00 0.00 0.00 46 1019.5
20260503204416 20 225 3.2 6.4 0.00 0.00 0.00 41 1019.6
20260503203917 20 113 1.6 3.2 0.00 0.00 0.00 43 1019.6
20260503203417 20 135 1.6 1.6 0.00 0.00 0.00 44 1019.6
20260503202917 20 0 1.6 4.8 0.00 0.00 0.00 45 1019.8
20260503202417 20 270 3.2 4.8 0.00 0.00 0.00 43 1019.8
20260503201917 20 293 1.6 3.2 0.00 0.00 0.00 41 1019.8
20260503201416 20 225 1.6 3.2 0.00 0.00 0.00 44 1019.9
20260503200916 20 338 1.6 3.2 0.00 0.00 0.00 42 1020.1
20260503200417 20 225 3.2 8.0 0.00 0.00 0.00 44 1020.3
20260503195917 20 248 1.6 3.2 0.00 0.00 0.00 42 1020.3
20260503195416 20 90 1.6 3.2 0.00 0.00 0.00 46 1020.3
20260503194917 20 158 1.6 1.6 0.00 0.00 0.00 41 1020.2
20260503194416 19 225 1.6 3.2 0.00 0.00 0.00 43 1020.3
20260503193917 19 90 1.6 3.2 0.00 0.00 0.00 44 1020.7
20260503193416 19 270 1.6 3.2 0.00 0.00 0.00 45 1020.7
20260503192917 19 270 1.6 3.2 0.00 0.00 0.00 43 1020.8
20260503192417 18 180 1.6 3.2 0.00 0.00 0.00 45 1020.7
20260503191917 18 0.0 0.0 0.00 0.00 0.00 42 1020.9
20260503191416 18 203 4.8 8.0 0.00 0.00 0.00 44 1020.9
20260503190916 18 135 3.2 4.8 0.00 0.00 0.00 42 1021.0
20260503190416 18 203 1.6 6.4 0.00 0.00 0.00 44 1020.9
20260503185916 18 0.0 1.6 0.00 0.00 0.00 43 1021.0
20260503185416 18 248 4.8 8.0 0.00 0.00 0.00 43 1020.9
20260503184916 18 225 3.2 8.0 0.00 0.00 0.00 45 1021.0
20260503184417 18 0.0 1.6 0.00 0.00 0.00 45 1021.0
20260503183917 18 90 3.2 8.0 0.00 0.00 0.00 44 1021.2
20260503183416 18 225 3.2 6.4 0.00 0.00 0.00 47 1021.3
20260503182917 18 135 3.2 9.7 0.00 0.00 0.00 44 1021.2
20260503182416 18 68 1.6 3.2 0.00 0.00 0.00 47 1021.5
20260503181917 18 248 3.2 8.0 0.00 0.00 0.00 45 1021.7
20260503181417 18 248 1.6 3.2 0.00 0.00 0.00 48 1021.6
20260503180917 18 90 1.6 3.2 0.00 0.00 0.00 47 1021.6
20260503180416 17 248 1.6 3.2 0.00 0.00 0.00 46 1021.7
20260503175917 17 135 1.6 3.2 0.00 0.00 0.00 42 1021.8
20260503175416 17 293 3.2 4.8 0.00 0.00 0.00 45 1021.9
20260503174916 18 113 1.6 3.2 0.00 0.00 0.00 45 1021.9
20260503174416 18 248 1.6 3.2 0.00 0.00 0.00 43 1022.0
20260503173916 17 135 1.6 3.2 0.00 0.00 0.00 50 1022.1
20260503173416 16 135 1.6 4.8 0.00 0.00 0.00 45 1022.0
20260503172916 16 68 4.8 6.4 0.00 0.00 0.00 46 1022.1
20260503172416 17 0.0 1.6 0.00 0.00 0.00 45 1022.2
20260503171916 17 225 3.2 6.4 0.00 0.00 0.00 45 1022.4
20260503171416 16 0.0 1.6 0.00 0.00 0.00 51 1022.4
20260503170917 16 180 1.6 3.2 0.00 0.00 0.00 42 1022.5
20260503170416 17 180 4.8 8.0 0.00 0.00 0.00 44 1022.6
20260503150916 13 248 1.6 1.6 0.00 0.00 0.00 54 1023.3
20260503150416 13 203 1.6 3.2 0.00 0.00 0.00 51 1023.4
20260503131416 12 0.0 0.0 0.00 0.00 0.00 70 1023.0
20260503130916 11 90 1.6 3.2 0.00 0.00 0.00 66 1023.1
20260503130416 11 0.0 1.6 0.00 0.00 0.00 68 1023.1
20260503110416 5 0.0 0.0 0.00 0.00 0.00 88 1021.7
20260503090416 5 0.0 0.0 0.00 0.00 0.00 86 1021.0
20260503081416 6 0.0 0.0 0.00 0.00 0.00 84 1020.7
20260503080916 6 0.0 0.0 0.00 0.00 0.00 84 1020.6
20260503080416 6 0.0 0.0 0.00 0.00 0.00 84 1020.5
20260503072916 7 0.0 0.0 0.00 0.00 0.00 81 1020.3
20260503072416 7 0.0 0.0 0.00 0.00 0.00 81 1020.3
20260503071916 7 0.0 0.0 0.00 0.00 0.00 81 1020.2
20260503071416 7 0.0 1.6 0.00 0.00 0.00 82 1020.2
20260503070916 7 0.0 0.0 0.00 0.00 0.00 81 1020.0
20260503070416 7 0.0 0.0 0.00 0.00 0.00 80 1020.1
20260503054916 9 0.0 0.0 0.00 0.00 0.00 75 1019.9
20260503054415 9 0.0 0.0 0.00 0.00 0.00 74 1019.8
20260503053916 9 0.0 0.0 0.00 0.00 0.00 74 1019.8
20260503053416 9 0.0 0.0 0.00 0.00 0.00 74 1019.7
20260503052916 9 0.0 0.0 0.00 0.00 0.00 73 1019.6
20260503052416 9 0.0 0.0 0.00 0.00 0.00 73 1019.7
20260503051915 9 0.0 0.0 0.00 0.00 0.00 73 1019.7
20260503051416 9 0.0 0.0 0.00 0.00 0.00 73 1019.6
20260503050916 9 0.0 0.0 0.00 0.00 0.00 74 1019.7
20260503050416 9 0.0 0.0 0.00 0.00 0.00 74 1019.7
20260503045916 9 0.0 0.0 0.00 0.00 0.00 75 1019.6
20260503045416 9 0.0 0.0 0.00 0.00 0.00 75 1019.6
20260503044916 8 0.0 0.0 0.00 0.00 0.00 75 1019.6
20260503044415 8 0.0 0.0 0.00 0.00 0.00 74 1019.6
20260503043915 8 0.0 0.0 0.00 0.00 0.00 74 1019.6
20260503043416 9 0.0 0.0 0.00 0.00 0.00 73 1019.6
20260503042916 9 0.0 0.0 0.00 0.00 0.00 73 1019.5
20260503042415 10 0.0 0.0 0.00 0.00 0.00 71 1019.4
20260503041916 10 0.0 0.0 0.00 0.00 0.00 70 1019.5
20260503041416 10 0.0 0.0 0.00 0.00 0.00 70 1019.4
20260503040915 10 0.0 0.0 0.00 0.00 0.00 69 1019.4
20260503040416 10 0.0 0.0 0.00 0.00 0.00 68 1019.3
20260503035917 11 0.0 0.0 0.00 0.00 0.00 68 1019.3
20260503035417 11 0.0 0.0 0.00 0.00 0.00 67 1019.3
20260503034917 11 0.0 0.0 0.00 0.00 0.00 68 1019.3
20260503034417 11 0.0 0.0 0.00 0.00 0.00 67 1019.2
20260503033917 11 0.0 0.0 0.00 0.00 0.00 67 1019.2
20260503033417 11 0.0 1.6 0.00 0.00 0.00 68 1019.2
20260503032917 11 0.0 0.0 0.00 0.00 0.00 66 1019.0
20260503032417 11 0.0 0.0 0.00 0.00 0.00 67 1019.0
20260503031917 11 0.0 0.0 0.00 0.00 0.00 67 1019.1
20260503031417 11 0.0 0.0 0.00 0.00 0.00 67 1019.0
20260503030917 11 0.0 0.0 0.00 0.00 0.00 68 1019.1
20260503030417 11 0.0 0.0 0.00 0.00 0.00 67 1019.1
20260503025917 11 0.0 0.0 0.00 0.00 0.00 67 1019.0
20260503025417 11 0.0 0.0 0.00 0.00 0.00 68 1018.9
20260503024917 11 0.0 0.0 0.00 0.00 0.00 68 1018.8
20260503024417 11 0.0 0.0 0.00 0.00 0.00 68 1018.7
20260503023917 11 0.0 0.0 0.00 0.00 0.00 68 1018.6
20260503023417 11 0.0 0.0 0.00 0.00 0.00 67 1018.6
20260503022917 11 0.0 0.0 0.00 0.00 0.00 67 1018.4
20260503022417 11 0.0 0.0 0.00 0.00 0.00 68 1018.5
20260503021916 11 0.0 0.0 0.00 0.00 0.00 68 1018.4
20260503021416 11 0.0 0.0 0.00 0.00 0.00 67 1018.3
20260503020917 11 0.0 0.0 0.00 0.00 0.00 68 1018.3
20260503020417 10 0.0 0.0 0.00 0.00 0.00 68 1018.3
20260503015917 10 0.0 0.0 0.00 0.00 0.00 68 1018.1
20260503015416 10 0.0 0.0 0.00 0.00 0.00 68 1018.0
20260503014916 10 0.0 0.0 0.00 0.00 0.00 68 1018.0
20260503014417 11 0.0 0.0 0.00 0.00 0.00 68 1017.9
20260503013917 11 0.0 0.0 0.00 0.00 0.00 68 1017.9
20260503013417 10 0.0 0.0 0.00 0.00 0.00 68 1017.9
20260503012917 10 0.0 0.0 0.00 0.00 0.00 68 1017.8
20260503012417 10 0.0 0.0 0.00 0.00 0.00 68 1017.7
20260503011917 10 0.0 0.0 0.00 0.00 0.00 68 1017.7
20260503011417 10 0.0 0.0 0.00 0.00 0.00 67 1017.7
20260503010916 11 0.0 0.0 0.00 0.00 0.00 66 1017.7
20260503010417 11 0.0 0.0 0.00 0.00 0.00 66 1017.5
20260503005916 11 0.0 0.0 0.00 0.00 0.00 66 1017.5
20260503005417 11 0.0 0.0 0.00 0.00 0.00 65 1017.5
20260503004917 11 0.0 0.0 0.00 0.00 0.00 64 1017.4
20260503004417 11 0.0 0.0 0.00 0.00 0.00 62 1017.3
20260503003917 12 0.0 0.0 0.00 0.00 0.00 62 1017.2
20260503003416 12 0.0 0.0 0.00 0.00 0.00 61 1017.0
20260503002917 12 0.0 0.0 0.00 0.00 0.00 60 1017.0
20260503002417 12 0.0 0.0 0.00 0.00 0.00 61 1016.9
20260503001916 12 0.0 0.0 0.00 0.00 0.00 60 1016.9
20260503001417 13 0.0 0.0 0.00 0.00 0.00 58 1016.8
20260503000916 13 0.0 0.0 0.00 0.00 0.00 57 1016.7
20260503000416 13 0.0 0.0 0.00 0.00 0.00 57 1016.7
20260502235917 13 0.0 1.6 0.00 0.00 0.00 56 1016.6
20260502235417 14 0.0 9.7 0.00 0.00 0.00 55 1016.6
20260502234917 14 0.0 0.0 0.00 0.00 0.00 55 1016.5
20260502234417 14 0.0 1.6 0.00 0.00 0.00 54 1016.5
20260502233917 15 0.0 0.0 0.00 0.00 0.00 54 1016.4
20260502233417 15 0.0 0.0 0.00 0.00 0.00 51 1016.4
20260502232916 15 0.0 0.0 0.00 0.00 0.00 52 1016.3
20260502232416 15 0.0 1.6 0.00 0.00 0.00 53 1016.4
20260502231916 15 0.0 0.0 0.00 0.00 0.00 52 1016.4
20260502231417 15 248 1.6 3.2 0.00 0.00 0.00 52 1016.3
20260502230917 15 0.0 0.0 0.00 0.00 0.00 52 1016.2
20260502230416 15 0.0 1.6 0.00 0.00 0.00 51 1016.3
20260502225917 16 0.0 0.0 0.00 0.00 0.00 52 1016.3
20260502225416 16 0.0 1.6 0.00 0.00 0.00 49 1016.3
20260502224917 16 248 1.6 3.2 0.00 0.00 0.00 49 1016.2
20260502224416 16 0.0 1.6 0.00 0.00 0.00 49 1016.3